TimePDT,TemperatureF,Dew PointF,Humidity,Sea Level PressureIn,VisibilityMPH,Wind Direction,Wind SpeedMPH,Gust SpeedMPH,PrecipitationIn,Events,Conditions,WindDirDegrees,DateUTC
12:56 AM,66.9,55.9,68,29.88,10.0,Calm,Calm,-,N/A,,Partly Cloudy,0,2012-10-02 07:56:00
1:56 AM,66.9,55.9,68,29.88,10.0,Calm,Calm,-,N/A,,Clear,0,2012-10-02 08:56:00
2:56 AM,64.9,44.1,47,29.87,10.0,Calm,Calm,-,N/A,,Clear,0,2012-10-02 09:56:00
3:56 AM,64.9,46.9,52,29.87,10.0,Calm,Calm,-,N/A,,Clear,0,2012-10-02 10:56:00
4:56 AM,63.0,39.0,41,29.86,10.0,Calm,Calm,-,N/A,,Clear,0,2012-10-02 11:56:00
5:56 AM,63.0,39.0,41,29.86,10.0,Calm,Calm,-,N/A,,Clear,0,2012-10-02 12:56:00
6:56 AM,63.0,42.1,46,29.87,10.0,Calm,Calm,-,N/A,,Clear,0,2012-10-02 13:56:00
7:56 AM,64.9,48.0,54,29.87,10.0,Calm,Calm,-,N/A,,Clear,0,2012-10-02 14:56:00
8:56 AM,69.1,55.0,61,29.88,10.0,Calm,Calm,-,N/A,,Partly Cloudy,0,2012-10-02 15:56:00
9:56 AM,70.0,57.9,65,29.88,10.0,Calm,Calm,-,N/A,,Partly Cloudy,0,2012-10-02 16:56:00
10:56 AM,72.0,57.9,61,29.88,10.0,NNE,4.6,-,N/A,,Clear,20,2012-10-02 17:56:00
11:56 AM,73.9,57.9,57,29.86,10.0,NNE,4.6,-,N/A,,Clear,30,2012-10-02 18:56:00
12:56 PM,75.2,55.4,50,29.85,10.0,North,6.9,-,N/A,,Clear,10,2012-10-02 19:56:00
1:56 PM,79.0,54.0,42,29.82,10.0,NNE,4.6,-,N/A,,Clear,30,2012-10-02 20:56:00
2:56 PM,82.0,52.0,35,29.80,10.0,NNE,3.5,-,N/A,,Partly Cloudy,20,2012-10-02 21:56:00
3:56 PM,91.9,39.0,16,29.79,10.0,WNW,12.7,-,N/A,,Partly Cloudy,290,2012-10-02 22:56:00
4:56 PM,89.1,39.0,17,29.78,10.0,West,17.3,-,N/A,,Partly Cloudy,280,2012-10-02 23:56:00
5:56 PM,84.2,41.0,22,29.78,10.0,West,17.3,-,N/A,,Partly Cloudy,280,2012-10-03 00:56:00
6:56 PM,78.8,39.2,24,29.77,10.0,West,17.3,-,N/A,,Scattered Clouds,280,2012-10-03 01:56:00
7:56 PM,77.0,39.9,26,29.78,10.0,WNW,11.5,-,N/A,,Scattered Clouds,290,2012-10-03 02:56:00
8:56 PM,75.0,43.0,32,29.78,10.0,WNW,5.8,-,N/A,,Scattered Clouds,290,2012-10-03 03:56:00
9:56 PM,73.9,46.0,37,29.79,10.0,South,4.6,-,N/A,,Scattered Clouds,190,2012-10-03 04:56:00
10:56 PM,72.0,51.1,48,29.80,10.0,NW,3.5,-,N/A,,Clear,310,2012-10-03 05:56:00
11:56 PM,71.1,52.0,51,29.80,10.0,North,4.6,-,N/A,,Clear,360,2012-10-03 06:56:00